Theta_e
310 316 322 328 326 326 326 326 327 328 328 328 326 325 324 323 323 323 322 320 320 319
307 311 317 324 326 326 325 323 324 327 327 326 325 323 322 323 321 320 320 319 319 318
303 306 309 318 327 324 324 324 325 325 326 325 323 322 322 321 320 319 318 318 318 318
300 302 306 319 325 325 322 323 323 324 324 324 322 321 321 320 318 317 316 317 318 317
297 299 301 304 311 323 322 322 321 322 324 323 321 321 319 317 317 316 315 317 317 317
294 295 297 299 303 314 322 322 322 323 323 322 321 319 319 318 317 316 315 316 316 317
292 293 294 296 297 299 304 320 321 322 323 322 321 320 319 318 316 315 316 317 317 318
290 292 292 294 295 295 295 297 300 320 321 322 321 320 319 318 317 317 316 317 318 318
289 289 290 290 292 292 293 293 293 294 300 308 299 294 299 312 317 317 317 316 317 318
286 287 288 288 289 289 289 290 290 290 290 290 291 290 297 297 318 317 317 316 316 315
284 284 286 286 286 287 288 287 287 288 288 288 289 289 291 294 307 301 294 293 297 311
282 282 283 283 284 285 285 285 285 285 286 286 286 288 288 290 290 287 286 287 288 288
280 281 281 282 282 284 285 284 284 283 284 284 284 286 288 288 286 285 285 285 285 286
280 280 280 282 283 283 283 283 283 283 283 283 284 284 285 286 286 284 284 284 284 285
Wind_Speed
8 5 7 9 7 9 11 12 15 14 14 13 12 11 11 9 10 10 9 10 7 6
10 10 10 12 5 9 8 6 6 11 14 14 13 13 13 10 11 10 9 8 8 7
11 12 13 11 11 10 8 6 9 13 15 14 13 13 13 10 10 11 8 7 9 8
13 14 13 9 12 9 7 11 12 14 14 15 15 13 12 12 12 12 10 9 10 10
14 15 13 13 15 6 8 9 12 13 13 13 13 13 14 13 12 13 12 11 11 11
17 16 16 15 15 13 6 8 9 10 12 13 13 13 14 13 13 13 12 13 12 11
18 18 16 15 14 14 15 5 8 9 11 11 12 13 12 11 11 10 10 12 12 12
16 16 17 16 16 15 14 13 16 7 9 9 9 9 12 12 11 12 11 11 11 12
17 17 18 17 17 16 15 15 16 16 17 11 7 13 4 11 11 11 11 10 10 10
16 16 17 17 17 19 18 16 15 16 16 15 14 23 8 2 8 8 9 9 8 8
16 16 16 16 17 17 15 16 14 15 14 13 13 23 21 11 2 6 9 9 7 5
16 16 16 16 15 14 14 15 15 14 16 14 14 27 21 14 11 10 11 9 11 9
15 16 15 14 14 11 11 12 11 14 16 24 20 28 24 15 10 10 8 9 10 18
15 13 14 13 13 13 12 12 13 14 14 17 19 21 30 25 9 8 8 8 9 8
Wind_Direction
340 315 293 228 192 192 190 189 174 199 211 207 193 186 186 192 202 197 198 193 193 194
339 321 297 276 220 206 218 226 183 191 212 209 196 192 187 196 197 189 188 193 191 202
341 326 313 270 242 205 209 200 187 199 205 208 197 197 193 194 192 187 186 187 192 206
351 340 326 286 247 221 198 200 201 204 204 199 199 192 192 193 186 187 183 187 193 202
358 351 347 342 341 185 200 198 198 196 203 201 194 188 193 191 186 183 188 193 196 201
8 358 356 354 349 338 207 212 214 204 203 198 192 189 197 194 186 191 191 191 195 191
7 3 0 358 4 358 358 289 211 222 223 210 195 192 194 189 187 190 196 195 193 195
5 9 9 5 12 11 17 3 2 268 222 213 203 198 192 188 194 196 197 199 195 201
11 14 14 11 15 17 15 26 20 13 13 14 34 338 232 181 193 194 196 198 200 198
7 12 15 14 15 19 18 20 26 30 20 14 2 356 351 283 188 193 200 197 196 200
8 8 9 16 19 17 17 21 20 27 19 22 360 9 10 349 80 77 55 37 12 233
5 8 11 15 13 17 20 19 21 21 18 13 17 21 8 52 37 58 49 42 32 14
7 12 9 10 15 15 22 28 29 29 27 19 27 21 17 35 70 29 42 38 29 28
19 16 13 7 15 17 21 27 26 28 27 30 23 28 32 27 32 72 33 34 34 25